TimeMST,TemperatureF,Dew PointF,Humidity,Sea Level PressureIn,VisibilityMPH,Wind Direction,Wind SpeedMPH,Gust SpeedMPH,PrecipitationIn,Events,Conditions,WindDirDegrees,DateUTC
12:53 AM,37.9,32.0,79,30.31,10.0,South,4.6,-,N/A,,Overcast,180,2013-01-25 07:53:00
1:53 AM,37.9,32.0,79,30.30,10.0,ENE,3.5,-,N/A,,Overcast,70,2013-01-25 08:53:00
2:53 AM,36.0,30.9,82,30.30,10.0,NNW,4.6,-,N/A,,Overcast,340,2013-01-25 09:53:00
3:53 AM,37.0,32.0,82,30.29,10.0,Calm,Calm,-,N/A,,Overcast,0,2013-01-25 10:53:00
4:53 AM,36.0,32.0,86,30.28,10.0,NW,3.5,-,N/A,,Overcast,310,2013-01-25 11:53:00
5:53 AM,35.1,32.0,89,30.29,10.0,North,6.9,-,N/A,,Overcast,10,2013-01-25 12:53:00
6:53 AM,35.1,32.0,89,30.30,10.0,North,5.8,-,N/A,,Overcast,10,2013-01-25 13:53:00
7:53 AM,34.0,32.0,92,30.32,10.0,NE,5.8,-,N/A,,Overcast,40,2013-01-25 14:53:00
8:53 AM,34.0,30.9,89,30.32,9.0,Calm,Calm,-,N/A,,Overcast,0,2013-01-25 15:53:00
9:53 AM,35.1,32.0,89,30.30,10.0,ENE,4.6,-,N/A,,Overcast,60,2013-01-25 16:53:00
10:53 AM,37.0,32.0,82,30.28,10.0,North,3.5,-,N/A,,Mostly Cloudy,10,2013-01-25 17:53:00
11:53 AM,39.0,32.0,76,30.25,10.0,Calm,Calm,-,N/A,,Mostly Cloudy,0,2013-01-25 18:53:00
12:53 PM,39.9,33.1,77,30.22,10.0,NW,5.8,-,N/A,,Mostly Cloudy,310,2013-01-25 19:53:00
1:53 PM,37.9,32.0,79,30.20,10.0,NNW,4.6,-,N/A,,Overcast,330,2013-01-25 20:53:00
2:53 PM,37.0,32.0,82,30.19,10.0,East,4.6,-,N/A,,Overcast,90,2013-01-25 21:53:00
3:53 PM,39.0,32.0,76,30.17,10.0,North,4.6,-,N/A,,Mostly Cloudy,350,2013-01-25 22:53:00
4:53 PM,37.0,32.0,82,30.17,10.0,North,3.5,-,N/A,,Mostly Cloudy,10,2013-01-25 23:53:00
5:53 PM,35.1,32.0,89,30.17,10.0,North,6.9,-,N/A,,Overcast,10,2013-01-26 00:53:00
6:53 PM,35.1,32.0,89,30.16,10.0,NNE,3.5,-,N/A,,Overcast,30,2013-01-26 01:53:00
7:53 PM,34.0,32.0,92,30.15,10.0,Calm,Calm,-,0.00,Rain,Light Rain,0,2013-01-26 02:53:00
8:53 PM,36.0,32.0,86,30.12,10.0,NNW,5.8,-,0.00,,Overcast,340,2013-01-26 03:53:00
9:53 PM,37.9,33.1,83,30.11,10.0,NNE,5.8,-,N/A,,Overcast,20,2013-01-26 04:53:00
10:53 PM,39.9,33.1,77,30.06,10.0,South,15.0,-,N/A,,Mostly Cloudy,170,2013-01-26 05:53:00
11:53 PM,39.9,33.1,77,30.06,10.0,Variable,4.6,-,N/A,,Overcast,0,2013-01-26 06:53:00